Shenandoah, IA

2:39 PM CDT on April 23, 2018 (GMT -0500)
Shenandoah Municipal

Weather History for KSDA - May, 2014

Change the Weather History Date:

Monday, May 5, 2014

  Actual Average Record
Temperature  
Mean Temperature 60 °F -  
Max Temperature 73 °F 74 °F 93 °F (1966)
Min Temperature 48 °F 49 °F 31 °F (1954)
Degree Days  
Heating Degree Days 4    
Growing Degree Days 10 (Base 50)    
Moisture  
Dew Point 43 °F    
Average Humidity 54    
Maximum Humidity 76    
Minimum Humidity 33    
Precipitation  
Precipitation 0.00 in - - ()
Sea Level Pressure  
Sea Level Pressure 29.79 in    
Wind  
Wind Speed 11 mph (NE)    
Max Wind Speed 18 mph    
Max Gust Speed 25 mph    
Visibility 10 miles    
Events      
Averages and records for this station are not official NWS values.
T = Trace of Precipitation, MM = Missing Value Source: NWS Daily Summary

Daily Weather History Graph

Daily Weather History Graph

Search for Another Location

Airport or City:

Astronomy

May. 05, 2014 Rise Set
Actual Time 6:15 AM CDT 8:22 PM CDT
Civil Twilight 5:45 AM CDT 8:52 PM CDT
Nautical Twilight 5:08 AM CDT 9:29 PM CDT
Astronomical Twilight 4:28 AM CDT 10:09 PM CDT
Moon 11:35 AM CDT (5/5) 1:06 AM CDT (5/5)
Length of Visible Light 15h 07m
Length of Day
14h 06m
Waxing Crescent, 37% of the Moon is Illuminated
May 5
Waxing Crescent
May 6
First Quarter
May 14
Full
May 21
Last Quarter
May 28
New

Hourly Weather History & Observations

Time (CDT) Temp. Dew Point Humidity Pressure Visibility Wind Dir Wind Speed Gust Speed Precip Events Conditions
12:15 AM 55.4 °F 44.6 °F 67% 29.79 in 10.0 mi NNE 9.2 mph - N/A   Clear
12:35 AM 55.4 °F 44.6 °F 67% 29.79 in 10.0 mi NE 9.2 mph - N/A   Clear
12:55 AM 55.4 °F 44.6 °F 67% 29.78 in 10.0 mi NE 10.4 mph - N/A   Clear
1:15 AM 53.6 °F 44.6 °F 72% 29.77 in 10.0 mi NE 9.2 mph - N/A   Clear
1:35 AM 53.6 °F 44.6 °F 72% 29.75 in 10.0 mi ENE 8.1 mph - N/A   Clear
1:55 AM 51.8 °F 42.8 °F 71% 29.77 in 10.0 mi NNE 10.4 mph - N/A   Clear
2:15 AM 53.6 °F 42.8 °F 67% 29.78 in 10.0 mi NNE 11.5 mph - N/A   Clear
2:35 AM 53.6 °F 42.8 °F 67% 29.78 in 10.0 mi NE 9.2 mph - N/A   Clear
2:55 AM 51.8 °F 42.8 °F 71% 29.77 in 10.0 mi NE 10.4 mph - N/A   Clear
3:15 AM 51.8 °F 42.8 °F 71% 29.78 in 10.0 mi NE 10.4 mph - N/A   Clear
3:35 AM 51.8 °F 42.8 °F 71% 29.77 in 10.0 mi NE 11.5 mph - N/A   Clear
3:55 AM 51.8 °F 41.0 °F 67% 29.78 in 10.0 mi NE 10.4 mph - N/A   Clear
4:15 AM 50.0 °F 41.0 °F 71% 29.77 in 10.0 mi NE 10.4 mph - N/A   Clear
4:35 AM 51.8 °F 41.0 °F 67% 29.77 in 10.0 mi NE 9.2 mph - N/A   Clear
4:55 AM 50.0 °F 41.0 °F 71% 29.79 in 10.0 mi NE 9.2 mph - N/A   Clear
5:15 AM 50.0 °F 41.0 °F 71% 29.79 in 10.0 mi NE 8.1 mph - N/A   Clear
5:35 AM 48.2 °F 41.0 °F 76% 29.79 in 10.0 mi NE 8.1 mph - N/A   Clear
5:55 AM 48.2 °F 41.0 °F 76% 29.79 in 10.0 mi NE 9.2 mph - N/A   Clear
6:15 AM 48.2 °F 41.0 °F 76% 29.80 in 10.0 mi NE 8.1 mph - N/A   Clear
6:35 AM 48.2 °F 41.0 °F 76% 29.80 in 10.0 mi NE 8.1 mph - N/A   Clear
6:55 AM 50.0 °F 41.0 °F 71% 29.80 in 10.0 mi NE 9.2 mph - N/A   Clear
7:15 AM 51.8 °F 41.0 °F 67% 29.81 in 10.0 mi NE 10.4 mph - N/A   Clear
7:35 AM 51.8 °F 41.0 °F 67% 29.81 in 10.0 mi ENE 9.2 mph - N/A   Clear
7:55 AM 53.6 °F 41.0 °F 62% 29.82 in 10.0 mi ENE 10.4 mph - N/A   Clear
8:15 AM 53.6 °F 41.0 °F 62% 29.82 in 10.0 mi NE 10.4 mph 18.4 mph N/A   Clear
8:35 AM 55.4 °F 41.0 °F 58% 29.81 in 10.0 mi NE 13.8 mph - N/A   Clear
8:55 AM 55.4 °F 39.2 °F 54% 29.82 in 10.0 mi ENE 15.0 mph - N/A   Clear
9:15 AM 57.2 °F 41.0 °F 55% 29.81 in 10.0 mi NE 16.1 mph - N/A   Clear
9:35 AM 57.2 °F 41.0 °F 55% 29.81 in 10.0 mi ENE 12.7 mph - N/A   Clear
9:55 AM 59.0 °F 41.0 °F 51% 29.81 in 10.0 mi NE 12.7 mph - N/A   Clear
10:15 AM 60.8 °F 41.0 °F 48% 29.81 in 10.0 mi NE 12.7 mph - N/A   Clear
10:35 AM 62.6 °F 41.0 °F 45% 29.82 in 10.0 mi NE 11.5 mph 19.6 mph N/A   Clear
10:50 AM 62.6 °F 41.0 °F 45% 29.82 in 10.0 mi NNE 11.5 mph - N/A   Clear
11:15 AM 64.4 °F 41.0 °F 42% 29.82 in 10.0 mi NE 16.1 mph - N/A   Clear
11:35 AM 64.4 °F 41.0 °F 42% 29.83 in 10.0 mi NE 13.8 mph - N/A   Clear
11:55 AM 66.2 °F 41.0 °F 40% 29.81 in 10.0 mi NE 15.0 mph 24.2 mph N/A   Clear
12:15 PM 66.2 °F 41.0 °F 40% 29.81 in 10.0 mi NNE 15.0 mph 23.0 mph N/A   Clear
12:35 PM 66.2 °F 41.0 °F 40% 29.82 in 10.0 mi ENE 13.8 mph - N/A   Clear
12:55 PM 68.0 °F 42.8 °F 40% 29.82 in 10.0 mi NE 12.7 mph 19.6 mph N/A   Clear
1:15 PM 68.0 °F 41.0 °F 37% 29.81 in 10.0 mi ENE 13.8 mph - N/A   Clear
1:35 PM 69.8 °F 42.8 °F 38% 29.80 in 10.0 mi ENE 15.0 mph - N/A   Clear
1:55 PM 69.8 °F 42.8 °F 38% 29.82 in 10.0 mi ENE 15.0 mph 20.7 mph N/A   Clear
2:15 PM 69.8 °F 42.8 °F 38% 29.82 in 10.0 mi ENE 12.7 mph - N/A   Clear
2:35 PM 69.8 °F 42.8 °F 38% 29.82 in 10.0 mi NE 16.1 mph - N/A   Clear
2:55 PM 71.6 °F 42.8 °F 35% 29.82 in 10.0 mi ENE 11.5 mph 20.7 mph N/A   Clear
3:15 PM 71.6 °F 44.6 °F 38% 29.81 in 10.0 mi East 15.0 mph 20.7 mph N/A   Clear
3:35 PM 71.6 °F 44.6 °F 38% 29.80 in 10.0 mi ENE 10.4 mph 20.7 mph N/A   Clear
3:55 PM 71.6 °F 44.6 °F 38% 29.80 in 10.0 mi ENE 17.3 mph - N/A   Clear
4:15 PM 71.6 °F 42.8 °F 35% 29.78 in 10.0 mi ENE 15.0 mph 23.0 mph N/A   Clear
4:35 PM 73.4 °F 42.8 °F 33% 29.77 in 10.0 mi ENE 18.4 mph 25.3 mph N/A   Clear
4:55 PM 73.4 °F 44.6 °F 36% 29.77 in 10.0 mi ENE 13.8 mph 21.9 mph N/A   Clear
5:15 PM 73.4 °F 44.6 °F 36% 29.77 in 10.0 mi ENE 17.3 mph - N/A   Clear
5:35 PM 71.6 °F 44.6 °F 38% 29.77 in 10.0 mi ENE 17.3 mph - N/A   Clear
5:55 PM 71.6 °F 44.6 °F 38% 29.78 in 10.0 mi East 16.1 mph - N/A   Clear
6:15 PM 71.6 °F 44.6 °F 38% 29.77 in 10.0 mi East 15.0 mph - N/A   Clear
6:35 PM 71.6 °F 44.6 °F 38% 29.78 in 10.0 mi East 15.0 mph - N/A   Clear
6:55 PM 69.8 °F 44.6 °F 40% 29.78 in 10.0 mi ENE 12.7 mph 19.6 mph N/A   Clear
7:15 PM 69.8 °F 44.6 °F 40% 29.78 in 10.0 mi ENE 12.7 mph - N/A   Clear
7:35 PM 68.0 °F 44.6 °F 43% 29.77 in 10.0 mi ENE 12.7 mph - N/A   Clear
7:55 PM 68.0 °F 44.6 °F 43% 29.78 in 10.0 mi ENE 12.7 mph - N/A   Clear
8:15 PM 66.2 °F 44.6 °F 46% 29.78 in 10.0 mi ENE 9.2 mph - N/A   Clear
8:35 PM 66.2 °F 44.6 °F 46% 29.78 in 10.0 mi ENE 10.4 mph - N/A   Clear
8:55 PM 64.4 °F 44.6 °F 49% 29.78 in 10.0 mi ENE 10.4 mph 16.1 mph N/A   Clear
9:15 PM 62.6 °F 46.4 °F 55% 29.79 in 10.0 mi East 8.1 mph - N/A   Clear
9:35 PM 62.6 °F 44.6 °F 52% 29.79 in 10.0 mi East 10.4 mph - N/A   Clear
9:55 PM 60.8 °F 44.6 °F 55% 29.80 in 10.0 mi NE 6.9 mph - N/A   Clear
10:15 PM 57.2 °F 44.6 °F 63% 29.80 in 10.0 mi NE 4.6 mph - N/A   Clear
10:35 PM 53.6 °F 42.8 °F 67% 29.81 in 10.0 mi NE 8.1 mph - N/A   Clear
10:55 PM 55.4 °F 44.6 °F 67% 29.80 in 10.0 mi NE 5.8 mph - N/A   Clear
11:15 PM 53.6 °F 44.6 °F 72% 29.80 in 9.0 mi NE 5.8 mph - N/A   Clear
11:35 PM 53.6 °F 44.6 °F 72% 29.80 in 10.0 mi NE 6.9 mph - N/A   Clear